Regional Weather Roundup
Issued by NWS

Home | Current Version | Previous Version | Graphics & Text | Print | Product List | Glossary On
Versions: 1 2 3 4 5 6 7 8 9 10 11 12 13 14 15 16 17 18 19 20 21 22 23 24 25 26 27 28 29 30 31 32 33 34 35 36 37 38 39 40 41 42 43 44 45 46 47 48 49 50
000
ASUS43 KOAX 310610
RWRNE

WEATHER ROUNDUP FOR NEBRASKA
NATIONAL WEATHER SERVICE OMAHA NE
100 AM CDT FRI OCT 31 2014

NOTES: SATELLITE DATA IS BEING USED TO AUGMENT CLOUD COVER ABOVE
       12000 FEET.
       "FAIR" INDICATES FEW OR NO CLOUDS BELOW 12,000 FEET WITH NO
       SIGNIFICANT WEATHER AND/OR OBSTRUCTIONS TO VISIBILITY.

  * THESE STATIONS DO NOT REPORT WEATHER SUCH AS RAIN...SNOW OR FOG.

NEZ001>004-019>022-054>056-310700-
NEBRASKA PANHANDLE

CITY           SKY/WX    TMP DP  RH WIND       PRES   REMARKS
SCOTTSBLUFF    CLEAR     35  30  82 E8        30.43S WCI  29
6HR MIN TEMP:  34; 6HR MAX TEMP:  51;

ALLIANCE       CLEAR     25  23  92 CALM      30.45R
6HR MIN TEMP:  24; 6HR MAX TEMP:  48;

CHADRON        CLEAR     27  25  92 NE5       30.46F WCI  22
6HR MIN TEMP:  27; 6HR MAX TEMP:  48;

KIMBALL        CLEAR     33  30  87 SE5       30.41S WCI  29
SIDNEY         CLEAR     29  25  85 S5        30.44R WCI  24
6HR MIN TEMP:  27; 6HR MAX TEMP:  49;

$$

NEZ057>060-069>072-079>082-310700-
SOUTHWEST NEBRASKA

CITY           SKY/WX    TMP DP  RH WIND       PRES   REMARKS
NORTH PLATTE   CLEAR     31  27  85 N3        30.46R
6HR MIN TEMP:  29; 6HR MAX TEMP:  52;

IMPERIAL       CLEAR     32  26  78 NE6       30.45R WCI  26
6HR MIN TEMP:  32; 6HR MAX TEMP:  55;

LEXINGTON      CLEAR     34  31  90 N8        30.45R WCI  27
MCCOOK         CLEAR     37  30  75 NE8       30.45R WCI  31
6HR MIN TEMP:  37; 6HR MAX TEMP:  56;

OGALLALA       CLEAR     34  30  87 NE6       30.46R WCI  28
$$

NEZ005>010-023>029-035>040-094-310700-
NORTH CENTRAL NEBRASKA

CITY           SKY/WX    TMP DP  RH WIND       PRES   REMARKS
VALENTINE      CLOUDY    32  28  85 NE14      30.51R WCI  22
6HR MIN TEMP:  32; 6HR MAX TEMP:  43;

AINSWORTH      CLOUDY    32  29  87 NE15      30.50R WCI  22
BROKEN BOW     PTCLDY    34  31  88 N17       30.44S WCI  23
6HR MIN TEMP:  34; 6HR MAX TEMP:  49;

O`NEILL        CLOUDY    35  29  79 N18       30.50R WCI  24
ORD            CLOUDY    34  30  85 N9        30.46R WCI  27
6HR MIN TEMP:  33; 6HR MAX TEMP:  46;

THEDFORD       PTCLDY    31  29  93 N6        30.48R WCI  26
$$

NEZ041-046>049-061>064-073>077-083>087-310700-
SOUTH CENTRAL NEBRASKA

CITY           SKY/WX    TMP DP  RH WIND       PRES   REMARKS
GRAND ISLAND   CLEAR     36  31  82 N9        30.44R WCI  29
6HR MIN TEMP:  36; 6HR MAX TEMP:  51;

AURORA         CLEAR     37  29  75 N22G28    30.42S WCI  25
HASTINGS       CLEAR     37  31  78 N10       30.42R WCI  30
6HR MIN TEMP:  37; 6HR MAX TEMP:  53;

HEBRON         MOCLDY    43  33  67 N10G17    30.39S
HOLDREGE       CLEAR     35  31  85 CALM      30.44R
KEARNEY *      CLEAR     36  30  80 NW7       30.44S WCI  30
YORK           CLOUDY    37  32  81 N21G29    30.42R WCI  27
$$

NEZ011>018-030>034-042>045-310700-
NORTHEAST NEBRASKA

CITY           SKY/WX    TMP DP  RH WIND       PRES   REMARKS
NORFOLK        CLOUDY    38  27  64 N23       30.45R WCI  27
6HR MIN TEMP:  38; 6HR MAX TEMP:  45;

ALBION         CLOUDY    37  28  70 N17G26    30.46R WCI  27
BLAIR          CLOUDY    40  30  69 N25G35    30.38R WCI  29
FREMONT        CLOUDY    40  29  66 N15G25    30.43R WCI  31
TEKAMAH        CLOUDY    38  27  64 N21G33    30.44R WCI  28
6HR MIN TEMP:  38; 6HR MAX TEMP:  51;

WAYNE          CLOUDY    35  25  67 N20G26    30.47R WCI  24
$$

NEZ050>053-065>068-078-088>093-310700-
SOUTHEAST NEBRASKA

CITY           SKY/WX    TMP DP  RH WIND       PRES   REMARKS
LINCOLN        CLOUDY    41  30  65 N23G33    30.41S
6HR MIN TEMP:  41; 6HR MAX TEMP:  54;

OMAHA EPPLEY   CLOUDY    40  29  64 N25G33    30.41R WCI  29
6HR MIN TEMP:  40; 6HR MAX TEMP:  53;

BEATRICE       PTCLDY    43  33  68 N23G29    30.37R
FALLS CITY     CLOUDY    48  39  71 N18G32    30.30R
6HR MIN TEMP:  48; 6HR MAX TEMP:  57; 6HR PCP: TRACE;

NEBRASKA CITY  CLOUDY    42  30  61 N16G24    30.36R
PLATTSMOUTH    CLOUDY    40  29  64 N17G26    30.38R WCI  32
$$

NEZ044-045-051>053-067-310700-
OMAHA AREA

CITY           SKY/WX    TMP DP  RH WIND       PRES   REMARKS
OMAHA EPPLEY   CLOUDY    40  29  64 N25G33    30.41R WCI  29
6HR MIN TEMP:  40; 6HR MAX TEMP:  53;

BLAIR          CLOUDY    40  30  69 N25G35    30.38R WCI  29
FREMONT        CLOUDY    40  29  66 N15G25    30.43R WCI  31
MILLARD        CLOUDY    41  31  67 N13G29    30.41R
OFFUTT AFB     CLOUDY    41  30  64 N16G33    30.39R
PLATTSMOUTH    CLOUDY    40  29  64 N17G26    30.38R WCI  32
WAHOO          CLOUDY    40  29  64 N22G31    30.41R WCI  30
$$



USA.gov is the U.S. government's official web portal to all federal, state and local government web resources and services.